Temperature
8 7 7 7 7 6 5 5 4 4 3 3 3 2 2 2 1 1 0 -0 -1 -1 -2 -2 -2 -2 -3 -3 -3 -3 -3 -3 -3 -3 -2 -2 -2 -2 -2 -2 -2 -2 -2
7 7 6 6 5 5 4 4 3 3 2 2 2 1 1 1 0 -0 -1 -2 -2 -2 -3 -3 -3 -3 -4 -4 -4 -4 -4 -4 -4 -4 -4 -3 -3 -3 -3 -3 -3 -3 -2
6 6 5 5 4 4 3 3 2 2 1 1 1 0 0 -0 -1 -2 -2 -3 -3 -3 -3 -4 -4 -4 -5 -5 -5 -5 -5 -5 -5 -5 -4 -4 -4 -4 -4 -4 -4 -3 -3
5 5 4 4 3 3 2 2 1 1 1 0 0 -0 -1 -1 -2 -3 -3 -4 -4 -4 -4 -5 -5 -5 -6 -6 -6 -5 -5 -5 -5 -5 -5 -5 -4 -4 -4 -4 -4 -4 -4
4 4 3 3 2 2 1 1 1 0 0 -0 -1 -1 -2 -2 -3 -3 -4 -5 -5 -5 -5 -5 -6 -6 -7 -6 -6 -6 -6 -6 -6 -5 -5 -5 -5 -5 -5 -5 -5 -5 -5
4 3 2 2 2 1 1 0 -0 -0 -1 -1 -1 -2 -3 -3 -3 -4 -5 -6 -6 -6 -6 -6 -6 -6 -7 -7 -6 -6 -6 -6 -6 -6 -6 -6 -6 -6 -6 -6 -6 -6 -5
3 2 2 1 1 0 0 -0 -1 -1 -1 -2 -3 -3 -4 -4 -5 -5 -7 -8 -7 -7 -7 -7 -7 -7 -7 -7 -7 -7 -6 -6 -6 -7 -7 -7 -7 -7 -7 -7 -7 -6 -6
2 1 1 1 0 -0 -1 -1 -1 -2 -2 -3 -4 -4 -5 -5 -6 -7 -8 -8 -7 -7 -7 -7 -7 -7 -7 -7 -7 -7 -7 -7 -7 -7 -8 -8 -8 -8 -8 -7 -7 -7 -6
1 1 0 -0 -1 -1 -1 -1 -2 -3 -4 -4 -5 -5 -6 -6 -7 -8 -8 -8 -8 -7 -7 -7 -7 -7 -7 -7 -7 -7 -7 -7 -8 -8 -8 -8 -8 -8 -8 -8 -7 -7 -6
1 0 -0 -1 -1 -1 -2 -2 -3 -4 -4 -5 -6 -6 -7 -7 -8 -9 -9 -8 -8 -8 -8 -8 -8 -8 -8 -8 -8 -8 -8 -8 -9 -9 -9 -9 -9 -9 -9 -8 -8 -8 -7
0 -0 -1 -1 -2 -2 -3 -3 -4 -5 -5 -6 -6 -7 -8 -8 -8 -9 -9 -9 -8 -8 -8 -8 -8 -8 -8 -8 -9 -9 -9 -9 -9 -10 -10 -10 -10 -9 -9 -9 -9 -9 -8
-1 -1 -1 -2 -2 -3 -3 -4 -5 -6 -6 -6 -7 -8 -8 -8 -9 -9 -9 -9 -9 -8 -8 -8 -8 -9 -9 -9 -9 -10 -10 -10 -10 -11 -10 -10 -10 -10 -10 -10 -9 -9 -9
-1 -1 -2 -2 -3 -3 -4 -5 -5 -6 -7 -7 -8 -8 -8 -9 -9 -9 -9 -9 -9 -9 -9 -9 -9 -9 -10 -10 -10 -10 -11 -11 -11 -11 -10 -10 -10 -10 -10 -10 -9 -9 -8
-1 -2 -3 -3 -4 -4 -5 -5 -6 -7 -8 -8 -8 -9 -9 -9 -9 -9 -9 -9 -9 -9 -9 -9 -10 -10 -10 -11 -11 -11 -11 -11 -11 -11 -11 -11 -11 -10 -10 -10 -9 -9 -8
-2 -3 -3 -4 -4 -5 -5 -6 -7 -8 -9 -9 -9 -9 -10 -10 -9 -10 -9 -9 -9 -9 -10 -10 -10 -11 -11 -11 -11 -11 -11 -11 -11 -11 -11 -11 -11 -10 -10 -10 -9 -8 -8
-3 -4 -4 -5 -5 -6 -6 -7 -8 -9 -9 -9 -9 -10 -10 -10 -10 -10 -10 -10 -10 -10 -10 -11 -11 -11 -12 -12 -12 -12 -12 -12 -12 -12 -11 -11 -11 -10 -10 -9 -8 -8 -8
-4 -4 -5 -5 -6 -7 -7 -8 -8 -9 -9 -10 -10 -10 -10 -10 -10 -10 -10 -10 -10 -11 -11 -12 -12 -12 -12 -12 -12 -12 -12 -12 -12 -12 -12 -11 -11 -10 -9 -9 -8 -8 -8
-4 -5 -5 -6 -7 -7 -8 -9 -9 -9 -10 -10 -10 -10 -10 -11 -11 -11 -11 -11 -11 -12 -12 -12 -12 -12 -12 -12 -12 -12 -12 -12 -12 -12 -11 -11 -10 -10 -9 -9 -9 -8 -8
-5 -5 -6 -7 -8 -8 -9 -10 -10 -10 -10 -10 -10 -10 -11 -11 -11 -11 -11 -12 -12 -12 -12 -12 -12 -13 -13 -13 -13 -13 -13 -12 -12 -12 -11 -11 -10 -10 -9 -9 -9 -9 -8
-5 -6 -6 -7 -8 -9 -10 -10 -10 -10 -10 -10 -11 -11 -11 -12 -12 -12 -12 -12 -12 -12 -13 -13 -13 -13 -13 -13 -13 -13 -12 -12 -11 -11 -10 -10 -10 -9 -9 -9 -9 -8 -8
-6 -6 -7 -8 -9 -10 -10 -11 -11 -11 -11 -11 -11 -11 -12 -12 -12 -12 -12 -12 -13 -13 -13 -13 -13 -13 -13 -13 -13 -12 -12 -11 -10 -10 -10 -10 -10 -9 -9 -8 -8 -8 -8
-7 -7 -8 -10 -10 -11 -11 -11 -11 -11 -11 -12 -12 -12 -12 -13 -13 -13 -13 -13 -13 -13 -13 -13 -13 -12 -12 -12 -12 -12 -11 -10 -10 -10 -10 -9 -9 -8 -8 -8 -7 -7 -7
-7 -9 -10 -10 -10 -11 -11 -11 -11 -12 -12 -12 -13 -13 -13 -13 -13 -13 -13 -13 -13 -13 -13 -13 -12 -11 -11 -11 -11 -10 -10 -10 -9 -9 -9 -9 -8 -8 -7 -7 -7 -7 -7
-9 -10 -10 -10 -11 -11 -11 -11 -12 -12 -12 -13 -13 -13 -13 -13 -13 -13 -13 -14 -13 -13 -12 -12 -11 -11 -10 -10 -10 -10 -10 -9 -9 -9 -8 -8 -7 -7 -7 -7 -6 -6 -6
-10 -10 -10 -11 -11 -11 -11 -12 -12 -12 -13 -13 -14 -14 -14 -14 -14 -14 -13 -13 -13 -12 -11 -11 -10 -10 -10 -9 -9 -9 -9 -9 -8 -8 -7 -7 -7 -6 -6 -6 -6 -6 -6
-10 -10 -10 -11 -11 -11 -12 -12 -12 -12 -13 -13 -14 -14 -14 -14 -14 -13 -13 -13 -13 -12 -11 -10 -10 -10 -9 -9 -9 -9 -9 -8 -7 -7 -7 -6 -6 -6 -6 -6 -6 -6 -6
Wind_Speed
6 6 6 5 5 4 5 6 6 7 9 10 10 11 11 12 13 13 13 14 15 16 16 17 18 18 15 15 16 16 16 17 20 21 21 23 27 26 24 23 23 23 23
5 5 5 4 4 4 5 6 7 8 9 9 10 11 12 12 13 14 15 15 17 18 18 18 19 17 19 18 16 18 18 18 18 22 22 23 27 26 25 25 22 21 22
4 3 3 3 4 5 6 7 8 9 9 10 10 11 12 13 14 14 15 17 18 19 19 20 20 20 20 18 20 19 17 17 18 20 22 21 21 22 24 24 25 21 22
3 2 2 3 4 6 6 7 8 9 10 10 11 12 13 14 14 15 17 19 19 20 19 19 19 20 20 21 19 19 18 20 20 19 19 20 21 23 21 21 21 20 19
2 1 2 3 5 6 7 8 9 9 10 10 12 12 13 13 13 17 19 20 20 21 20 19 19 21 23 21 19 20 21 20 20 19 19 20 21 21 21 20 21 20 21
2 1 2 4 5 6 8 9 9 10 10 11 13 14 14 13 18 22 21 20 20 20 20 19 19 20 22 26 27 27 27 24 22 20 20 22 25 24 22 21 21 21 22
1 1 3 5 6 8 9 9 10 11 12 13 14 15 16 17 20 23 24 21 19 18 19 19 18 18 24 21 25 29 28 28 26 22 24 25 26 24 24 25 23 24 23
0 2 3 5 7 9 9 10 11 11 12 14 15 16 17 17 20 22 25 20 18 18 18 20 21 22 21 24 26 25 23 22 25 23 22 24 24 25 24 25 25 24 23
1 3 4 6 8 9 11 12 12 13 14 14 15 16 17 18 19 22 23 18 17 19 19 20 22 22 26 31 27 24 24 24 25 30 31 30 33 32 26 19 19 18 19
3 4 6 7 9 10 11 13 13 13 14 15 15 15 16 17 19 21 23 15 18 18 19 20 23 24 29 33 26 24 25 25 25 26 25 25 23 23 25 18 16 16 18
4 6 7 8 9 10 12 12 13 14 15 15 16 14 14 16 18 21 22 16 17 19 19 19 18 28 33 35 31 23 25 28 24 22 20 19 18 16 16 16 16 15 17
5 7 8 9 9 9 11 12 13 14 15 15 15 14 12 13 16 19 23 23 24 21 19 18 20 32 35 34 25 25 31 28 17 17 17 17 16 16 16 18 19 19 18
6 8 9 10 10 10 11 13 12 12 12 13 13 14 13 13 15 21 23 26 28 21 19 25 30 33 30 23 24 29 25 17 16 17 17 17 17 18 18 17 18 17 18
7 9 9 10 11 11 10 10 11 11 12 13 14 15 15 15 14 15 17 19 22 21 18 23 28 26 22 23 22 19 16 16 17 17 17 17 17 16 16 15 15 15 13
8 9 9 9 10 11 11 10 12 11 12 15 15 15 16 16 19 26 23 19 20 20 22 18 16 16 16 17 17 17 16 16 17 16 16 17 17 16 16 15 14 13 10
8 9 8 9 9 10 11 12 12 14 18 20 21 20 17 21 28 30 30 30 31 28 22 16 16 16 17 18 18 18 17 17 17 17 16 16 16 16 16 14 12 9 7
8 9 8 9 10 10 11 12 14 14 15 18 19 20 21 25 27 28 29 29 27 24 16 14 15 16 17 17 17 17 18 18 17 16 16 16 15 15 14 13 10 8 6
8 9 9 9 10 10 11 12 13 14 15 13 15 19 22 23 26 27 27 23 16 16 13 15 16 16 17 17 17 17 17 17 16 16 16 15 14 14 12 11 9 9 7
8 7 8 9 10 10 11 12 12 14 14 15 15 16 20 21 23 23 21 14 14 14 15 15 16 16 16 17 17 17 17 17 17 16 15 15 13 12 11 10 9 11 8
8 10 11 10 10 10 11 12 12 13 14 14 15 15 16 17 15 15 14 14 13 14 15 16 16 17 17 16 16 16 16 16 17 15 14 13 12 11 10 10 8 8 6
8 9 11 11 10 11 11 12 13 13 14 14 14 16 21 16 15 15 14 14 14 15 16 16 16 17 16 16 16 17 18 16 15 14 13 13 12 10 9 8 8 6 6
8 9 9 10 11 11 12 13 13 13 14 15 14 16 21 15 13 13 14 14 15 14 15 15 16 16 15 15 16 16 16 16 15 14 13 12 11 10 9 7 7 6 6
8 9 10 11 11 14 14 12 12 13 13 14 14 14 14 13 13 14 14 15 15 15 15 15 16 16 16 16 15 15 15 15 14 14 13 11 10 9 8 7 7 7 6
9 11 12 12 12 12 12 12 12 13 13 14 14 14 14 14 14 15 15 14 15 15 15 16 17 20 23 20 16 14 14 14 14 11 11 10 9 8 7 6 6 6 5
10 11 11 12 12 12 12 12 12 13 13 13 13 13 14 14 14 14 14 14 16 16 19 19 15 17 22 25 21 17 20 21 15 11 9 8 8 8 7 7 6 5 5
10 11 11 11 11 11 11 12 12 13 13 13 13 13 13 13 14 14 14 13 15 16 17 16 19 22 25 19 20 23 23 20 17 15 9 7 7 7 7 5 6 5 6
Wind_Direction
102 91 79 64 47 35 28 16 1 351 346 342 337 330 328 327 327 322 319 317 313 311 309 307 305 303 302 301 300 295 292 290 289 292 295 299 301 300 298 296 293 292 290
105 89 73 57 35 23 18 6 353 346 340 334 327 323 324 325 324 319 317 316 313 311 310 308 306 306 304 302 299 297 295 293 293 295 297 299 299 301 300 300 299 295 291
106 87 66 41 21 13 5 354 345 337 330 326 324 323 323 323 319 316 317 314 312 309 309 307 307 307 304 304 303 299 298 299 298 296 296 297 298 300 303 300 298 295 293
112 87 47 21 9 1 352 342 334 327 322 322 321 321 319 319 315 319 319 314 311 309 307 306 307 307 306 306 303 302 304 303 300 297 297 299 301 301 301 300 299 298 297
137 93 26 5 358 348 340 331 322 316 315 315 316 317 318 317 318 322 317 313 311 309 308 309 308 306 303 302 302 304 305 302 301 301 302 304 303 303 302 301 298 299 297
154 43 4 353 346 335 327 319 313 311 314 316 317 318 317 315 318 316 316 313 311 310 311 311 309 306 306 306 304 303 302 301 301 303 304 303 302 300 300 299 299 297 296
142 2 350 342 330 322 315 311 314 317 317 316 316 316 314 313 315 316 317 315 311 310 310 310 309 308 309 308 307 307 304 300 299 302 302 301 300 299 299 297 295 293 290
212 341 338 326 318 314 313 316 320 319 315 313 313 312 311 311 316 319 319 318 313 310 310 309 308 309 310 312 311 309 306 306 305 304 300 298 296 296 294 293 293 291 287
312 325 323 317 313 314 318 322 320 316 312 311 310 311 312 314 319 319 321 318 314 313 312 310 310 309 311 314 315 311 311 311 310 306 303 300 298 298 297 295 292 291 292
313 314 311 309 311 315 317 315 314 311 308 309 309 311 312 314 315 318 321 318 316 315 313 312 311 312 314 317 316 314 313 313 313 310 308 306 303 298 296 293 294 295 295
305 303 305 310 314 312 310 311 309 308 307 310 312 314 314 312 314 318 321 322 317 315 314 314 314 316 317 317 317 314 311 314 312 311 309 306 302 299 299 298 295 292 291
301 304 309 312 311 306 306 307 309 311 312 316 317 317 315 315 315 317 319 317 316 314 313 313 315 317 319 320 319 315 316 317 312 309 306 305 306 305 304 301 295 289 281
306 308 308 307 305 303 303 307 311 315 316 317 316 316 318 319 317 317 317 317 317 316 312 313 316 319 321 320 317 319 320 316 312 309 308 307 306 303 302 299 295 290 284
304 304 304 304 305 307 306 307 313 316 315 314 315 316 318 317 317 319 319 319 319 318 316 318 320 319 320 319 320 320 318 313 312 309 308 306 305 304 303 302 301 299 298
298 298 301 303 305 307 308 309 309 305 304 308 310 312 313 313 313 315 317 318 319 318 323 322 322 322 322 322 321 320 319 317 315 313 311 310 309 308 307 306 301 300 305
293 301 305 306 307 309 312 310 301 297 301 302 302 303 305 305 309 314 318 319 320 325 327 321 321 320 321 321 321 320 318 317 317 315 313 312 311 311 310 310 311 317 329
287 297 302 304 308 311 311 311 312 311 307 303 302 304 305 308 312 316 318 321 323 327 324 319 319 319 320 319 317 316 315 315 316 314 314 313 313 313 315 320 331 340 346
288 292 298 303 306 307 308 308 308 311 314 313 311 309 311 314 317 317 321 325 324 325 321 319 319 319 318 317 315 314 314 315 315 315 315 314 315 316 322 332 340 347 346
293 299 306 307 305 304 305 305 305 307 308 311 313 315 318 321 319 319 326 325 321 321 321 320 319 318 316 314 313 312 313 313 313 315 314 315 317 320 327 333 335 342 346
294 300 307 307 304 304 304 304 306 307 309 311 314 317 322 322 321 324 326 322 321 320 320 320 318 315 314 313 312 313 313 313 314 314 314 315 317 321 324 326 331 334 337
302 304 306 302 301 301 302 304 305 307 309 310 310 313 319 320 318 320 321 321 321 321 320 319 316 314 313 313 313 313 313 312 312 312 314 316 318 320 321 321 324 325 328
302 303 304 302 301 301 303 304 306 308 309 309 311 313 317 317 316 317 318 319 320 319 319 316 313 312 312 313 313 313 311 310 310 312 314 317 319 320 320 322 326 329 337
299 300 300 300 301 302 304 304 306 307 309 310 310 312 315 316 317 317 318 319 320 319 318 316 313 312 314 315 314 311 308 306 307 309 316 318 319 320 322 325 330 336 346
296 299 301 302 302 303 304 306 308 308 308 309 310 311 313 314 315 316 318 318 320 318 317 316 313 313 316 320 319 315 310 311 314 318 317 310 312 318 323 327 331 342 346
302 302 302 301 302 303 305 306 307 308 308 307 308 310 312 314 314 315 318 319 319 318 317 316 315 318 320 321 321 320 321 329 337 333 318 310 313 317 324 329 339 351 6
302 301 301 301 301 303 305 305 305 305 304 305 308 310 311 312 313 316 318 319 321 318 316 316 317 320 321 322 322 324 331 338 340 340 334 320 325 336 344 353 4 21 32
Height
1490 1490 1488 1487 1485 1483 1480 1478 1475 1471 1467 1464 1459 1455 1451 1446 1441 1436 1431 1425 1420 1415 1410 1404 1399 1394 1388 1383 1377 1371 1365 1359 1349 1338 1332 1324 1318 1313 1307 1302 1297 1291 1284
1489 1488 1486 1484 1482 1480 1477 1474 1471 1468 1464 1460 1455 1451 1446 1441 1436 1430 1424 1419 1414 1408 1403 1397 1392 1386 1380 1375 1369 1363 1357 1351 1343 1333 1324 1317 1310 1304 1298 1292 1287 1281 1274
1487 1485 1484 1482 1479 1477 1474 1471 1468 1464 1460 1456 1451 1446 1441 1435 1429 1424 1418 1413 1407 1401 1396 1390 1384 1379 1373 1367 1362 1355 1349 1343 1336 1328 1318 1310 1302 1296 1290 1283 1277 1271 1264
1484 1483 1481 1479 1476 1473 1470 1467 1464 1460 1456 1451 1446 1440 1435 1429 1423 1417 1411 1405 1399 1394 1388 1383 1377 1372 1366 1360 1353 1348 1342 1335 1328 1320 1311 1303 1296 1289 1283 1275 1267 1262 1255
1481 1480 1478 1475 1472 1470 1467 1464 1460 1455 1451 1445 1440 1434 1429 1423 1417 1411 1403 1397 1391 1386 1381 1376 1370 1365 1358 1353 1347 1341 1335 1328 1320 1313 1305 1297 1289 1282 1275 1268 1260 1252 1245
1478 1476 1474 1471 1469 1466 1463 1459 1455 1450 1445 1440 1434 1429 1423 1417 1411 1403 1397 1390 1384 1379 1373 1368 1362 1357 1351 1346 1340 1334 1329 1321 1313 1306 1298 1291 1283 1276 1268 1261 1254 1246 1236
1474 1472 1470 1468 1466 1463 1459 1454 1450 1445 1440 1434 1429 1423 1416 1410 1403 1396 1389 1384 1378 1373 1367 1362 1356 1350 1345 1338 1331 1325 1319 1313 1308 1302 1293 1285 1276 1269 1262 1253 1246 1239 1229
1471 1469 1467 1465 1462 1458 1454 1450 1445 1440 1434 1428 1422 1416 1409 1402 1395 1389 1383 1378 1372 1367 1363 1357 1351 1344 1338 1331 1323 1315 1309 1304 1300 1293 1286 1276 1268 1261 1254 1247 1238 1228 1219
1468 1466 1464 1461 1458 1454 1450 1445 1440 1434 1428 1422 1416 1409 1402 1395 1389 1383 1378 1372 1366 1362 1357 1351 1345 1338 1332 1325 1317 1308 1300 1294 1289 1282 1275 1267 1259 1251 1245 1238 1229 1222 1212
1465 1463 1460 1457 1454 1450 1445 1440 1434 1428 1422 1416 1409 1403 1396 1389 1384 1379 1374 1368 1362 1356 1350 1344 1339 1332 1325 1318 1311 1302 1293 1285 1278 1269 1262 1255 1247 1240 1236 1231 1224 1216 1207
1462 1460 1457 1454 1450 1446 1441 1435 1429 1422 1416 1409 1403 1396 1390 1385 1379 1375 1370 1365 1358 1351 1344 1338 1331 1326 1319 1311 1304 1296 1288 1280 1271 1262 1253 1245 1239 1233 1228 1222 1216 1210 1202
1459 1456 1454 1450 1446 1441 1436 1429 1423 1417 1410 1403 1396 1390 1385 1381 1376 1370 1365 1360 1355 1348 1340 1332 1325 1319 1311 1304 1296 1289 1282 1274 1265 1256 1248 1240 1233 1226 1219 1213 1206 1200 1195
1455 1453 1450 1446 1441 1436 1430 1424 1418 1411 1405 1398 1392 1386 1381 1376 1371 1366 1360 1355 1349 1342 1335 1327 1320 1312 1304 1297 1290 1283 1275 1267 1260 1252 1244 1236 1228 1220 1212 1205 1198 1192 1186
1452 1449 1445 1441 1436 1430 1424 1418 1412 1406 1400 1395 1389 1383 1377 1371 1366 1361 1355 1349 1342 1336 1328 1321 1314 1307 1299 1292 1285 1277 1270 1263 1256 1248 1239 1231 1223 1215 1207 1200 1192 1186 1180
1448 1444 1440 1435 1430 1424 1418 1413 1407 1401 1397 1392 1386 1380 1374 1368 1363 1358 1352 1344 1338 1331 1323 1315 1308 1301 1294 1286 1279 1272 1265 1258 1251 1243 1235 1226 1218 1210 1202 1195 1188 1182 1177
1443 1439 1435 1430 1424 1418 1412 1406 1401 1397 1392 1387 1382 1377 1371 1365 1359 1353 1347 1340 1333 1327 1319 1312 1305 1298 1291 1283 1276 1268 1261 1253 1246 1238 1230 1223 1215 1207 1199 1191 1186 1181 1176
1438 1434 1429 1424 1419 1413 1407 1401 1395 1390 1387 1382 1377 1372 1367 1360 1355 1348 1342 1335 1329 1323 1316 1309 1302 1295 1288 1281 1273 1265 1257 1249 1242 1234 1227 1219 1212 1205 1198 1192 1186 1181 1177
1432 1428 1423 1418 1413 1408 1403 1397 1391 1385 1380 1375 1372 1367 1361 1356 1349 1343 1337 1330 1324 1318 1312 1306 1299 1292 1285 1277 1270 1261 1253 1245 1238 1231 1224 1217 1210 1204 1199 1193 1188 1184 1180
1427 1422 1418 1413 1408 1403 1398 1393 1388 1382 1377 1371 1365 1361 1356 1350 1344 1338 1333 1327 1320 1314 1308 1302 1296 1289 1281 1274 1266 1258 1250 1242 1235 1228 1222 1215 1210 1205 1200 1195 1190 1186 1182
1421 1417 1413 1408 1403 1398 1393 1389 1384 1378 1373 1368 1362 1356 1350 1344 1338 1333 1328 1323 1317 1311 1305 1298 1292 1285 1277 1269 1262 1254 1246 1239 1232 1226 1220 1215 1210 1205 1200 1195 1191 1187 1184
1416 1411 1407 1402 1398 1393 1389 1384 1380 1375 1369 1364 1358 1353 1347 1342 1336 1330 1325 1319 1314 1307 1301 1294 1287 1280 1273 1265 1258 1250 1243 1237 1231 1225 1219 1214 1209 1204 1200 1195 1192 1188 1185
1410 1406 1401 1397 1393 1389 1385 1380 1376 1370 1365 1359 1353 1348 1343 1338 1333 1327 1321 1316 1310 1304 1298 1291 1284 1276 1269 1262 1255 1248 1241 1235 1230 1224 1219 1213 1208 1204 1199 1196 1192 1189 1187
1404 1400 1396 1392 1388 1384 1380 1375 1371 1366 1360 1355 1349 1344 1339 1334 1329 1323 1318 1312 1306 1300 1294 1287 1280 1273 1266 1259 1253 1247 1241 1235 1229 1224 1219 1213 1208 1204 1200 1197 1194 1192 1189
1399 1395 1392 1387 1383 1379 1375 1370 1366 1361 1356 1350 1345 1340 1335 1330 1325 1319 1314 1308 1303 1297 1290 1284 1277 1270 1263 1257 1251 1246 1240 1235 1229 1224 1219 1214 1210 1206 1203 1199 1197 1194 1192
1394 1390 1387 1382 1378 1374 1369 1365 1361 1356 1351 1346 1341 1336 1331 1326 1321 1315 1310 1305 1299 1293 1287 1281 1275 1268 1262 1256 1250 1244 1239 1234 1229 1225 1220 1216 1212 1209 1205 1202 1199 1197 1195
1389 1385 1381 1377 1373 1369 1364 1360 1355 1351 1346 1341 1337 1332 1327 1322 1317 1312 1307 1302 1297 1291 1285 1279 1273 1267 1261 1255 1249 1244 1239 1235 1230 1226 1223 1219 1215 1212 1208 1206 1203 1201 1200